RYR33G LDZD-EDJA

Flight info

Callsign RYR33G
Flight time 1h 4m
Altitude 36000
Route RAVNA2W RAVNA DCT USELU DCT VEKEN DCT ERKIR L608 KPT KPT1C
Aircraft B738/M-SDE2E3FGHIRWXY/LB1

Departure

Time 2026-04-30 11:31
Airport Zadar Airport (LDZD)

Arrival

Time 2026-04-30 12:35
Airport Memmingen Allgau Airport (EDJA)
Time Latitude Longitude Altitude Speed Heading
2026-04-30 11:15 44.09672 15.35435 289 ft 0 kts 326°
2026-04-30 11:28 44.09692 15.35453 289 ft 4 kts 85°
2026-04-30 11:28 44.09667 15.35481 289 ft 7 kts 149°
2026-04-30 11:28 44.09619 15.35533 289 ft 11 kts 148°
2026-04-30 11:29 44.09532 15.35547 289 ft 15 kts 178°
2026-04-30 11:29 44.09421 15.35559 293 ft 17 kts 164°
2026-04-30 11:29 44.09251 15.35740 288 ft 11 kts 216°
2026-04-30 11:30 44.09211 15.35689 288 ft 31 kts 222°
2026-04-30 11:30 44.08853 15.35244 293 ft 106 kts 221°
2026-04-30 11:30 44.08131 15.34360 300 ft 167 kts 223°
2026-04-30 11:31 44.07220 15.33234 816 ft 177 kts 223°
2026-04-30 11:31 44.06381 15.32205 1432 ft 185 kts 221°
2026-04-30 11:31 44.06185 15.31961 1579 ft 183 kts 221°
2026-04-30 11:31 44.05218 15.30772 2360 ft 186 kts 219°
2026-04-30 11:32 44.04271 15.29619 3322 ft 180 kts 219°
2026-04-30 11:32 44.03310 15.28441 3979 ft 192 kts 219°
2026-04-30 11:32 44.02223 15.27117 4273 ft 222 kts 219°
2026-04-30 11:33 43.99669 15.24009 4944 ft 260 kts 219°
2026-04-30 11:33 43.98309 15.22359 5577 ft 265 kts 219°
2026-04-30 11:33 43.96930 15.20687 6541 ft 262 kts 221°
2026-04-30 11:33 43.95629 15.18865 7301 ft 266 kts 240°
2026-04-30 11:34 43.95132 15.16481 8040 ft 264 kts 274°
2026-04-30 11:34 43.95658 15.13982 8466 ft 274 kts 305°
2026-04-30 11:34 43.96781 15.11852 9139 ft 280 kts 314°
2026-04-30 11:34 43.98098 15.09832 9987 ft 284 kts 316°
2026-04-30 11:35 43.99478 15.07750 10524 ft 299 kts 317°
2026-04-30 11:35 44.01199 15.06007 10690 ft 317 kts 340°
2026-04-30 11:35 44.03342 15.05096 11208 ft 326 kts 347°
2026-04-30 11:35 44.05520 15.04299 11929 ft 330 kts 346°
2026-04-30 11:36 44.07778 15.03456 12780 ft 332 kts 346°
2026-04-30 11:36 44.09978 15.02619 13593 ft 335 kts 345°
2026-04-30 11:36 44.12274 15.01736 14368 ft 339 kts 345°
2026-04-30 11:36 44.14559 15.00851 15136 ft 342 kts 345°
2026-04-30 11:37 44.16829 14.99971 15909 ft 345 kts 345°
2026-04-30 11:37 44.19149 14.99070 16689 ft 348 kts 345°
2026-04-30 11:37 44.21498 14.98157 17431 ft 353 kts 345°
2026-04-30 11:37 44.23880 14.97231 18133 ft 358 kts 345°
2026-04-30 11:38 44.26286 14.96294 18849 ft 360 kts 345°
2026-04-30 11:38 44.28708 14.95351 19525 ft 363 kts 344°
2026-04-30 11:38 44.31144 14.94401 20192 ft 365 kts 344°
2026-04-30 11:38 44.33600 14.93443 20844 ft 368 kts 344°
2026-04-30 11:39 44.36077 14.92476 21481 ft 371 kts 344°
2026-04-30 11:39 44.38572 14.91501 22110 ft 374 kts 344°
2026-04-30 11:39 44.41088 14.90516 22739 ft 377 kts 344°
2026-04-30 11:39 44.43631 14.89521 23289 ft 382 kts 344°
2026-04-30 11:40 44.46198 14.88515 23863 ft 385 kts 344°
2026-04-30 11:40 44.48787 14.87500 24383 ft 387 kts 343°
2026-04-30 11:40 44.51382 14.86481 24895 ft 389 kts 343°
2026-04-30 11:40 44.53947 14.85252 25371 ft 391 kts 333°
2026-04-30 11:41 44.56330 14.83412 25867 ft 392 kts 329°
2026-04-30 11:41 44.58679 14.81445 26356 ft 394 kts 328°
2026-04-30 11:41 44.61034 14.79443 26830 ft 397 kts 328°
2026-04-30 11:41 44.63404 14.77435 27267 ft 400 kts 329°
2026-04-30 11:42 44.65798 14.75424 27711 ft 402 kts 329°
2026-04-30 11:42 44.68209 14.73414 28181 ft 404 kts 329°
2026-04-30 11:42 44.70632 14.71406 28630 ft 405 kts 329°
2026-04-30 11:42 44.73066 14.69394 29052 ft 407 kts 329°
2026-04-30 11:43 44.75519 14.67370 29468 ft 409 kts 329°
2026-04-30 11:43 44.77975 14.65344 29966 ft 409 kts 329°
2026-04-30 11:43 44.80417 14.63327 30575 ft 405 kts 329°
2026-04-30 11:43 44.82839 14.61325 31066 ft 403 kts 329°
2026-04-30 11:44 44.85240 14.59339 31726 ft 395 kts 329°
2026-04-30 11:44 44.87604 14.57381 32109 ft 397 kts 329°
2026-04-30 11:44 44.92460 14.53351 32409 ft 409 kts 329°
2026-04-30 11:45 44.94904 14.51320 32882 ft 406 kts 328°
2026-04-30 11:45 44.97334 14.49300 33396 ft 403 kts 328°
2026-04-30 11:45 44.99748 14.47290 33804 ft 403 kts 328°
2026-04-30 11:45 45.02165 14.45275 34155 ft 404 kts 328°
2026-04-30 11:46 45.04587 14.43256 34488 ft 404 kts 328°
2026-04-30 11:46 45.07007 14.41236 34805 ft 404 kts 329°
2026-04-30 11:46 45.09433 14.39208 35060 ft 405 kts 329°
2026-04-30 11:46 45.11858 14.37179 35372 ft 405 kts 329°
2026-04-30 11:47 45.14277 14.35152 35708 ft 403 kts 329°
2026-04-30 11:47 45.16687 14.33131 36032 ft 403 kts 329°
2026-04-30 11:47 45.19100 14.31106 36286 ft 404 kts 329°
2026-04-30 11:47 45.21535 14.29061 36268 ft 410 kts 329°
2026-04-30 11:48 45.26467 14.24911 36289 ft 420 kts 329°
2026-04-30 11:48 45.31519 14.20651 36287 ft 424 kts 329°
2026-04-30 11:49 45.36596 14.16362 36268 ft 423 kts 329°
2026-04-30 11:49 45.41590 14.12133 36268 ft 415 kts 329°
2026-04-30 11:50 45.46551 14.07924 36271 ft 415 kts 329°
2026-04-30 11:50 45.51619 14.03958 36283 ft 416 kts 335°
2026-04-30 11:51 45.56946 14.00677 36285 ft 418 kts 337°
2026-04-30 11:51 45.62311 13.97445 36283 ft 419 kts 336°
2026-04-30 11:52 45.67672 13.94154 36288 ft 420 kts 336°
2026-04-30 11:52 45.73033 13.90821 36296 ft 420 kts 336°
2026-04-30 11:53 45.78399 13.87468 36265 ft 421 kts 336°
2026-04-30 11:53 45.83734 13.84125 36287 ft 421 kts 336°
2026-04-30 11:54 45.89105 13.80753 36293 ft 422 kts 336°
2026-04-30 11:54 45.94476 13.77375 36292 ft 422 kts 337°
2026-04-30 11:55 45.99854 13.73986 36293 ft 422 kts 336°
2026-04-30 11:55 46.05237 13.70586 36287 ft 423 kts 336°
2026-04-30 11:56 46.10620 13.67178 36293 ft 423 kts 336°
2026-04-30 11:56 46.16007 13.63761 36274 ft 423 kts 337°
2026-04-30 11:57 46.21391 13.60339 36292 ft 423 kts 337°
2026-04-30 11:57 46.26777 13.56908 36285 ft 423 kts 337°
2026-04-30 11:58 46.32166 13.53467 36282 ft 424 kts 337°
2026-04-30 11:58 46.37556 13.50018 36274 ft 423 kts 337°
2026-04-30 11:59 46.42933 13.46570 36306 ft 422 kts 337°
2026-04-30 11:59 46.48265 13.43143 36268 ft 422 kts 338°
2026-04-30 12:00 46.53629 13.39687 36270 ft 421 kts 337°
2026-04-30 12:00 46.58573 13.35096 36265 ft 426 kts 320°
2026-04-30 12:01 46.62879 13.29154 36269 ft 428 kts 319°
2026-04-30 12:01 46.67174 13.23153 36264 ft 428 kts 319°
2026-04-30 12:02 46.71487 13.17163 36260 ft 429 kts 320°
2026-04-30 12:02 46.75818 13.11166 36246 ft 430 kts 319°
2026-04-30 12:03 46.82302 13.02177 36243 ft 429 kts 320°
2026-04-30 12:04 46.86525 12.96298 36064 ft 410 kts 320°
2026-04-30 12:04 46.88570 12.93443 35783 ft 402 kts 321°
2026-04-30 12:04 46.90584 12.90635 35418 ft 399 kts 321°
2026-04-30 12:04 46.92582 12.87847 35058 ft 396 kts 321°
2026-04-30 12:05 46.94541 12.85113 34670 ft 394 kts 321°
2026-04-30 12:05 46.96514 12.82354 34330 ft 391 kts 321°
2026-04-30 12:05 46.98481 12.79601 33827 ft 390 kts 321°
2026-04-30 12:05 47.00433 12.76863 33463 ft 387 kts 322°
2026-04-30 12:06 47.02368 12.74146 33101 ft 383 kts 322°
2026-04-30 12:06 47.04286 12.71453 32736 ft 381 kts 322°
2026-04-30 12:06 47.06193 12.68773 32350 ft 379 kts 322°
2026-04-30 12:06 47.08084 12.66111 32006 ft 375 kts 322°
2026-04-30 12:07 47.09959 12.63467 31643 ft 372 kts 323°
2026-04-30 12:07 47.11822 12.60838 31308 ft 371 kts 324°
2026-04-30 12:07 47.13677 12.58219 30957 ft 370 kts 324°
2026-04-30 12:07 47.15529 12.55605 30617 ft 369 kts 324°
2026-04-30 12:08 47.17375 12.52994 30211 ft 368 kts 325°
2026-04-30 12:08 47.19214 12.50386 29854 ft 367 kts 324°
2026-04-30 12:08 47.21048 12.47787 29476 ft 365 kts 324°
2026-04-30 12:08 47.22868 12.45204 29081 ft 362 kts 324°
2026-04-30 12:09 47.24673 12.42638 28763 ft 359 kts 324°
2026-04-30 12:09 47.26465 12.40088 28392 ft 357 kts 324°
2026-04-30 12:09 47.28248 12.37550 28033 ft 356 kts 324°
2026-04-30 12:09 47.30020 12.35026 27696 ft 354 kts 324°
2026-04-30 12:10 47.31784 12.32511 27367 ft 353 kts 324°
2026-04-30 12:10 47.33544 12.30000 27012 ft 352 kts 324°
2026-04-30 12:10 47.35299 12.27494 26670 ft 350 kts 324°
2026-04-30 12:10 47.37043 12.24998 26321 ft 349 kts 324°
2026-04-30 12:11 47.38779 12.22510 25984 ft 347 kts 324°
2026-04-30 12:11 47.40505 12.20036 25668 ft 345 kts 324°
2026-04-30 12:11 47.42226 12.17568 25339 ft 344 kts 324°
2026-04-30 12:11 47.43941 12.15106 24996 ft 343 kts 324°
2026-04-30 12:12 47.45649 12.12650 24670 ft 342 kts 324°
2026-04-30 12:12 47.47352 12.10202 24337 ft 342 kts 324°
2026-04-30 12:12 47.49054 12.07752 23983 ft 342 kts 324°
2026-04-30 12:12 47.50754 12.05301 23619 ft 340 kts 323°
2026-04-30 12:13 47.52409 12.02799 23225 ft 344 kts 316°
2026-04-30 12:13 47.53688 11.99825 22883 ft 350 kts 303°
2026-04-30 12:13 47.54520 11.96410 22530 ft 357 kts 290°
2026-04-30 12:13 47.55061 11.92822 22183 ft 357 kts 288°
2026-04-30 12:14 47.55528 11.89230 21857 ft 352 kts 287°
2026-04-30 12:14 47.55985 11.85686 21547 ft 350 kts 287°
2026-04-30 12:14 47.56450 11.82155 21199 ft 349 kts 287°
2026-04-30 12:14 47.56921 11.78642 20885 ft 347 kts 287°
2026-04-30 12:15 47.57396 11.75147 20533 ft 345 kts 287°
2026-04-30 12:15 47.57873 11.71673 20222 ft 343 kts 287°
2026-04-30 12:15 47.58350 11.68219 19897 ft 341 kts 287°
2026-04-30 12:15 47.58819 11.64791 19606 ft 339 kts 287°
2026-04-30 12:16 47.59131 11.62526 19391 ft 339 kts 287°
2026-04-30 12:16 47.59606 11.59065 19071 ft 338 kts 286°
2026-04-30 12:16 47.60068 11.55708 18756 ft 337 kts 287°
2026-04-30 12:16 47.60530 11.52317 18423 ft 335 kts 286°
2026-04-30 12:17 47.61444 11.45584 17734 ft 331 kts 286°
2026-04-30 12:17 47.61897 11.42247 17412 ft 329 kts 285°
2026-04-30 12:17 47.62481 11.37823 16994 ft 325 kts 284°
2026-04-30 12:18 47.62751 11.35645 16780 ft 324 kts 284°
2026-04-30 12:18 47.63150 11.32368 16479 ft 322 kts 283°
2026-04-30 12:18 47.63543 11.29110 16171 ft 320 kts 283°
2026-04-30 12:18 47.63935 11.25867 15863 ft 319 kts 283°
2026-04-30 12:19 47.64323 11.22643 15549 ft 316 kts 283°
2026-04-30 12:19 47.64709 11.19443 15259 ft 314 kts 283°
2026-04-30 12:19 47.65092 11.16262 14958 ft 313 kts 283°
2026-04-30 12:19 47.65473 11.13090 14648 ft 311 kts 283°
2026-04-30 12:20 47.65853 11.09938 14356 ft 310 kts 283°
2026-04-30 12:20 47.66230 11.06797 14053 ft 309 kts 283°
2026-04-30 12:20 47.66605 11.03663 13722 ft 308 kts 283°
2026-04-30 12:20 47.66979 11.00540 13412 ft 307 kts 282°
2026-04-30 12:21 47.67348 10.97434 13100 ft 305 kts 283°
2026-04-30 12:21 47.67716 10.94344 12783 ft 303 kts 282°
2026-04-30 12:21 47.68083 10.91276 12508 ft 301 kts 282°
2026-04-30 12:21 47.68445 10.88213 12202 ft 300 kts 282°
2026-04-30 12:22 47.68804 10.85165 11901 ft 299 kts 282°
2026-04-30 12:22 47.69161 10.82127 11613 ft 298 kts 281°
2026-04-30 12:22 47.69516 10.79110 11332 ft 296 kts 282°
2026-04-30 12:22 47.69868 10.76094 11020 ft 297 kts 281°
2026-04-30 12:23 47.70216 10.73122 10746 ft 296 kts 281°
2026-04-30 12:23 47.70572 10.70074 10436 ft 296 kts 281°
2026-04-30 12:23 47.70918 10.67107 10323 ft 288 kts 280°
2026-04-30 12:23 47.71252 10.64220 10036 ft 288 kts 281°
2026-04-30 12:24 47.71590 10.61301 9773 ft 285 kts 280°
2026-04-30 12:24 47.71924 10.58404 9500 ft 283 kts 280°
2026-04-30 12:24 47.72264 10.55459 9030 ft 289 kts 279°
2026-04-30 12:24 47.72604 10.52501 8643 ft 292 kts 279°
2026-04-30 12:25 47.72945 10.49528 8382 ft 291 kts 279°
2026-04-30 12:25 47.73284 10.46564 8058 ft 292 kts 279°
2026-04-30 12:25 47.73620 10.43626 7681 ft 294 kts 279°
2026-04-30 12:25 47.73963 10.40623 7317 ft 295 kts 279°
2026-04-30 12:26 47.74305 10.37615 6953 ft 296 kts 279°
2026-04-30 12:26 47.74669 10.34610 6600 ft 296 kts 283°
2026-04-30 12:26 47.75311 10.31705 6226 ft 297 kts 292°
2026-04-30 12:26 47.76093 10.28855 5864 ft 299 kts 295°
2026-04-30 12:27 47.76895 10.26013 5587 ft 297 kts 294°
2026-04-30 12:27 47.77669 10.23211 5331 ft 288 kts 293°
2026-04-30 12:27 47.78395 10.20504 5118 ft 275 kts 293°
2026-04-30 12:27 47.79065 10.17961 4999 ft 253 kts 294°
2026-04-30 12:28 47.79670 10.15640 4980 ft 230 kts 293°
2026-04-30 12:28 47.80226 10.13517 4954 ft 211 kts 293°
2026-04-30 12:28 47.80753 10.11493 5013 ft 213 kts 294°
2026-04-30 12:28 47.81346 10.09488 4977 ft 208 kts 309°
2026-04-30 12:29 47.82408 10.08193 5002 ft 195 kts 336°
2026-04-30 12:29 47.83590 10.07154 4992 ft 198 kts 336°
2026-04-30 12:29 47.84780 10.06108 5022 ft 200 kts 335°
2026-04-30 12:29 47.85983 10.05047 4982 ft 200 kts 337°
2026-04-30 12:30 47.87176 10.03995 5001 ft 199 kts 337°
2026-04-30 12:30 47.88386 10.02985 5009 ft 198 kts 347°
2026-04-30 12:30 47.89644 10.02984 5000 ft 171 kts 36°
2026-04-30 12:30 47.90519 10.04097 4982 ft 168 kts 51°
2026-04-30 12:31 47.91300 10.05424 4783 ft 172 kts 57°
2026-04-30 12:31 47.92000 10.06785 4560 ft 160 kts 58°
2026-04-30 12:31 47.92606 10.08119 4357 ft 151 kts 63°
2026-04-30 12:31 47.93119 10.09369 4191 ft 137 kts 62°
2026-04-30 12:32 47.93609 10.10576 4024 ft 132 kts 64°
2026-04-30 12:32 47.94072 10.11774 3826 ft 130 kts 62°
2026-04-30 12:32 47.94538 10.12945 3653 ft 131 kts 62°
2026-04-30 12:32 47.95005 10.14143 3477 ft 133 kts 61°
2026-04-30 12:33 47.95483 10.15357 3271 ft 137 kts 60°
2026-04-30 12:33 47.95950 10.16536 3088 ft 129 kts 61°
2026-04-30 12:33 47.96396 10.17665 2892 ft 124 kts 60°
2026-04-30 12:33 47.96858 10.18806 2775 ft 132 kts 60°
2026-04-30 12:34 47.97322 10.20017 2513 ft 133 kts 61°
2026-04-30 12:34 47.97782 10.21204 2306 ft 132 kts 57°
2026-04-30 12:34 47.98252 10.22360 2128 ft 129 kts 62°
2026-04-30 12:34 47.98707 10.23501 2092 ft 121 kts 63°
2026-04-30 12:35 47.99087 10.24473 2067 ft 90 kts 60°
2026-04-30 12:35 47.99252 10.24896 2064 ft 21 kts 76°
2026-04-30 12:35 47.99276 10.24936 2063 ft 5 kts 263°
2026-04-30 12:35 47.99239 10.24838 2065 ft 16 kts 240°
2026-04-30 12:36 47.99160 10.24639 2066 ft 28 kts 239°
2026-04-30 12:36 47.99047 10.24361 2067 ft 32 kts 238°
2026-04-30 12:36 47.98934 10.24087 2070 ft 30 kts 239°
2026-04-30 12:36 47.98837 10.23837 2075 ft 26 kts 251°
2026-04-30 12:37 47.98911 10.23658 2073 ft 21 kts 279°
2026-04-30 12:37 47.98886 10.23523 2076 ft 10 kts 250°
2026-04-30 12:37 47.98862 10.23424 2080 ft 10 kts 250°
2026-04-30 12:37 47.98844 10.23328 2080 ft 9 kts 276°
2026-04-30 12:38 47.98884 10.23317 2079 ft 0 kts 52°
2026-04-30 12:38 47.98886 10.23321 2076 ft 1 kts 53°
2026-04-30 12:38 47.98891 10.23329 2079 ft 0 kts 51°